Current Version              Previous Version:    01  02  03  04  05  06  07  08  09  10  11  12  13  14  15  16  17  18  19  20  21  22  23  24  25  26  27  28  29  30  
   31  32  33  34  35  36  37  38  39  40  41  42  43  44  45  46  47  48  49  50  51  52  53  54  55  56  57  58  59  60  

[Printable]
632
ASUS44 KLUB 201401
RWRTX
WEST TEXAS WEATHER ROUNDUP
NATIONAL WEATHER SERVICE LUBBOCK TX
900 AM CDT SAT SEP 20 2014

NOTE: "FAIR" INDICATES FEW OR NO CLOUDS BELOW 12,000 FEET WITH NO
SIGNIFICANT WEATHER AND/OR OBSTRUCTIONS TO VISIBILITY.

TXZ004-006>008-010-012-014-016-OKZ002-201500-
TEXAS PANHANDLE/OKLAHOMA PANHANDLE

CITY           SKY/WX    TMP DP  RH WIND       PRES   REMARKS
AMARILLO       CLOUDY    67  65  93 S8        30.08R
BORGER         SUNNY     70  64  81 SW6       30.05R
CANADIAN       SUNNY     70  67  90 S3        30.03R
DALHART        SUNNY     64  62  93 SW7       30.09R
DUMAS          CLOUDY    64  63  97 S3        30.07S FOG
GUYMON         SUNNY     67  64  90 S9        30.02S
HEREFORD       CLOUDY    68  67  98 CALM      30.09S FOG
PAMPA          SUNNY     65  64  95 S6        30.07R FOG
PERRYTON       SUNNY     66  63  90 S7        30.04S
$$

TXZ026-029-035-045-048-201500-
SOUTHERN PANHANDLE/SOUTH PLAINS/ROLLING PLAINS

CITY           SKY/WX    TMP DP  RH WIND       PRES   REMARKS
CHILDRESS      CLOUDY    71  67  87 SE6       30.03R
SEMINOLE       RAIN      68  68  99 CALM      30.04R
LUBBOCK        CLOUDY    68  67  96 E5        30.04R
PLAINVIEW      CLOUDY    70  69  96 E5        30.05S FOG
SNYDER         CLOUDY    70  69  98 SE10      30.02S
$$

TXZ052-054-060>062-072-078-127-140-154-169-201500-
PERMIAN BASIN/CONCHO VALLEY/BIG COUNTRY/EDWARDS PLATEAU

CITY           SKY/WX    TMP DP  RH WIND       PRES   REMARKS
ABILENE        CLOUDY    75  70  84 S12       30.01R
BIG SPRING     CLOUDY    74  70  88 SE10      30.03R
JUNCTION       MOSUNNY   75  69  81 E3        30.00R
MIDLAND        CLOUDY    71  70  96 SE8       30.00R
ODESSA         CLOUDY    71  69  93 S10       30.01R FOG
SAN ANGELO     CLOUDY    73  71  93 E5        30.00R
SONORA         CLOUDY    73  70  88 SE7       30.05R
SWEETWATER     CLOUDY    72  72 100 SE7       30.05R
WINK           MOSUNNY   73  71  93 E8        29.98R
$$

TXZ055-058-074-075-080-082-201500-
FAR WEST/SOUTHWEST MOUNTAINS/TRANS PECOS

CITY           SKY/WX    TMP DP  RH WIND       PRES   REMARKS
ALPINE         MOSUNNY   69  65  84 SW3       30.14R
DRYDEN           N/A     79  72  79 E7        29.97R
EL PASO        MOSUNNY   69  64  84 N5        30.05R
FORT STOCKTON  MOSUNNY   70  68  93 W8        30.01R
GUADALUPE PASS LGT RAIN  63  63 100 NE17        N/A  VSB<1/4
MARFA          SUNNY     64  63  94 CALM      30.13R
PRESIDIO       FAIR      75  67  78 N5        29.99S
$$

TXZ014-016-019-021>030-083-201500
TEXAS TECH WEST TEXAS MESONET/TEXAS PANHANDLE/NORTHERN SOUTH PLAINS

CITY           SKY/WX    TMP DP  RH WIND       PRES   REMARKS
ABERNATHY 5ENE   N/A     67  65  94 E2        30.07R
AMARILLO 9NNE    N/A     67  66  94 S6        30.06S
AMARILLO 7SSE    N/A     66  65  98 SE2       30.09R
AMHERST 1NE      N/A     66  65  97 E1        30.07S
BOOTLEG 11WNW    N/A     62  61  97 CALM      30.13S
CANADIAN 6E      N/A     68  65  88 SE3       30.02R
CAPROCK CYN SP   N/A     67  67  98 CALM      30.05R
CHILDRESS 2NNE   N/A     70  66  88 SE6       30.02R
CLARENDON 2WSW   N/A     65  63  92 NE1       30.06R
CLAUDE 12SW      N/A     67  65  95 S2        30.08R
DIMMITT 2NE      N/A     65  64  97 NE5       30.09R
FLOYDADA 2NNE    N/A     67  66  97 E7        30.05S
FRIONA 2NE       N/A     64  63  96 NE2       30.11R
GOODLETT 3W      N/A     71  66  83 SE3       30.00S
HART 3N          N/A     66  65  97 SE3       30.08R
HEREFORD 2NW     N/A     66  64  94 CALM      30.09S
MCLEAN 1E        N/A     65  64  96 SE6       30.05R
MEMPHIS 1NE      N/A     70  65  84 E2        30.03R
MULESHOE 2SSW    N/A     67  65  96 N3        30.08R
OLTON 6S         N/A     67  65  94 SE3       30.06S
PALO DURO SP     N/A     67  64  92 SE1       30.09R
PAMPA 2E         N/A     64  63  97 S6        30.06R
PLAINVIEW 1S     N/A     67  66  97 E2        30.06R
SILVERTON 7ESE   N/A     67  66  96 E3        30.06S
TULIA 2ENE       N/A     66  65  97 E3        30.08R
TURKEY 2WSW      N/A     69  68  97 E5        30.03S
UMBARGER 3NNE    N/A     64  64  99 E2        30.10R
$$

TXZ033>036-039>041-045>048-201500
TEXAS TECH WEST TEXAS MESONET/SOUTH PLAINS

CITY           SKY/WX    TMP DP  RH WIND       PRES   REMARKS
AIKEN 3WSW       N/A     67  67  99 SE3       30.07R
ANDREWS 2NE      N/A     70  67  89 S6        30.02S
ANTON 6SSW       N/A     67  65  95 E7        30.05S
BROWNFIELD 2S  RAIN      66  65  97 E5        30.03R
DENVR CTY 7WNW RAIN      67  65  93 NW8       30.05R
GAIL 2ESE      RAIN      69  67  95 E2        30.00S
LAMESA 2SE       N/A     69  68  96 S6        30.02S
LEVELLAND 4S     N/A     67  65  94 NE5       30.05S
LUBBOCK 3WNW     N/A     68  66  93 E3        30.05R
MORTON 1ENE      N/A     66  65  97 N5        30.07S
ODONNELL 1N      N/A     68  66  94 E6        30.02S
PLAINS 3N        N/A     67  66  96 N7        30.06R
RALLS 1SE        N/A     68  68  98 SE6       30.05R
REESE CENTER     N/A     67  66  96 E5        30.05R
SEAGRAVES 1SW    N/A     68  67  98 CALM      30.03R
SEMINOLE 2NNE    N/A     68  67  95 CALM      30.03R
SLATON 2NE       N/A     68  67  98 E6        30.04R
SNYDER 3E      LGT RAIN  69  68  98 SE8       30.02R
SUNDOWN 8SW    LGT RAIN  67  66  96 NE3       30.05S
TAHOKA 3NNE      N/A     68  66  94 E8        30.03R
WOLFFORTH 6SSW RAIN      67  67  97 NE3       30.04S
$$

TXZ031-032-036>038-042>044-201500-
TEXAS TECH WEST TEXAS MESONET/ROLLING PLAINS

CITY           SKY/WX    TMP DP  RH WIND       PRES   REMARKS
ASPERMONT 3NE    N/A     73  70  91 E5        30.00
FLUVANNA 3WNW  RAIN      69  67  93 SE9       30.02R
GRAHAM 5SSW      N/A     68  67  95 E7        30.02R
GUTHRIE 10WSW  LGT RAIN  70  68  93 E7        30.00S
HASKELL 1NW      N/A     71  68  91 E6        30.00R
KNOX CITY 3NW    N/A     73  67  83 E8        30.00S
LK A HENRY 1NW   N/A     71  69  96 SE8       30.00S
NORTHFIELD 1S    N/A     69  67  94 E5        30.02S
ODELL 4ENE       N/A     72  69  90 SE5       30.01R
PADUCAH 10SW     N/A     69  68  94 E2        30.01S
POST 1NE         N/A     69  71 100 SE8       30.02R
RRING SPRGS 3N   N/A     69  68  98 E5        30.03S
SEYMOUR 3NW      N/A     74  68  82 SE9       29.99S
SPUR 1W        LGT RAIN  70  68  93 SE5       30.02R
WEINERT 2NNE     N/A     72  70  93 SE6       30.00S
WHITE RVR 6NE    N/A     69  68  97 E6        30.03R
$$

TXZ052-054-060>062-072-078-127-140-154-169-201500-
TEXAS TECH WEST TEXAS MESONET/PERMIAN BASIN/
CONCHO VALLEY/BIG COUNTRY/EDWARDS PLATEAU

CITY           SKY/WX    TMP DP  RH WIND       PRES   REMARKS
COYANOSA 2N      N/A     71  70  95 SW7       29.98R
JUNCTION 1SSW    N/A     74  69  85 NE2       30.00R
MERTZON 3NNE     N/A     71  69  95 E2        30.01R
SAN ANGELO 7NW   N/A     73  69  89 E8        30.00R
STRLNG CT 4WSW   N/A     71  69  93 E5        30.01R
ST LAWRNCE 5SW   N/A     71  70  96 SE7       30.01R
SWEETWATR 11SW   N/A     70  69  98 SE5       30.04R
WALL 1E          N/A     72  69  90 E2        30.00R
$$

TXZ055-058-074-075-080-082-201500-
TEXAS TECH WEST TEXAS MESONET/FAR WEST/SOUTHWEST MOUNTAINS/TRANS PECOS

CITY           SKY/WX    TMP DP  RH WIND       PRES   REMARKS
PRSMN GAP BBNP   N/A     73  70  89 NE7       30.00R
GUADLPE MTN NP   N/A     62  60  96 NE1       30.17R
$$